STARLINK-4175 (53283 NORAD) Tracking and Keplerian Element Data

This shows tracking and keplerian element data for the satellite.

Feedback or suggestion? Click here.




ElementValue
Catalog53283
NameSTARLINK-4175
Epoch Orbit130
Epoch Day269.91667824
Epoch Year2022
RAAN84.8456
Inclination53.2171
Eccentricity0.000138
Argument of Perigee38.7939
Mean Anonmoly38.6022
Mean Motion15.63858481
Decay Rate-0.01110232
L11 53283U 22086AT 22269.91667824 -.01110232 00000+0 -12796-1 0 9990
L22 53283 53.2171 84.8456 0001380 38.7939 38.6022 15.63858481 1302

Live tracking and technical data element details for STARLINK-4175 (NORAD 53283). STARLINK-4175 can be tracked NOW for your location showing map with azimuth and elevation plus other details from your city location.

Track the satellite on the map from your city or location and see movement details for azimuth, elevation, latitude, longitude, range, height, and movement on the map or in text.







IsCatalogInMostPopularTable: catalog: 53283, numindb: 2
Update: records affected: 1



GetName: 53283 STARLINK-4175

Hit Count: updated at: Fri, 30 Sep 2022 04:02:23 GMT